Miscellaneous Local Product
Issued by NWS North Platte, NE

Home | Current Version | Previous Version | Text Only | Print | Product List | Glossary On
Versions: 1 2 3 4 5 6 7 8 9 10 11 12 13 14 15 16 17 18 19 20 21 22 23 24 25 26 27 28 29 30 31 32 33 34 35 36 37 38 39 40 41 42 43 44 45 46 47 48 49 50
630
AXUS43 KLBF 020610
MISLBF


WESTERN AND NORTH CENTRAL NEBRASKA HOURLY WEATHER ROUNDUP
NATIONAL WEATHER SERVICE NORTH PLATTE NE
100 AM CDT MON MAY 02 2016

NOTE: "FAIR" INDICATES FEW OR NO CLOUDS BELOW 12,000 FEET WITH NO
SIGNIFICANT WEATHER AND/OR OBSTRUCTIONS TO VISIBILITY.

NOTE: STATIONS NOT REPORTING VARIABLES SUCH AS SKY/WEATHER OR
PRESSURE ARE PROVIDED BY RAWS AND APRS NETWORKS AND ARE NOT UNDER
NATIONAL WEATHER SERVICE QUALITY CONTROL.

...OBSERVATIONS IN AND NEAR THE EASTERN PANHANDLE OF NEBRASKA...

CITY           SKY/WX    TMP DP  RH WIND       PRES   REMARKS
PINE RIDGE     CLEAR     31  27  85 CALM      30.24F
CHADRON        CLEAR     33  30  88 W7        30.25F WCI  27
ALLIANCE       CLEAR     26  25  96 SW6       30.24F WCI  19
SIDNEY         PTCLDY    32  27  81 W8        30.26F WCI  25
CRESCENT LAKE    N/A     34  29  82 W6          N/A  WCI  29
BIG SPRINGS      N/A     37  34  90 SW3         N/A
$$

...OBSERVATIONS IN NORTHERN NEBRASKA AND FAR SOUTHERN SOUTH DAKOTA...

CITY           SKY/WX    TMP DP  RH WIND       PRES   REMARKS
WINNER         FAIR      40  33  76 SW6       30.21F
VALENTINE      CLEAR     32  29  88 W7        30.23F WCI  26
THEDFORD         N/A     35  32  90 W6        30.25S WCI  30
AINSWORTH      CLEAR     37  32  81 W6        30.22F WCI  33
O`NEILL        CLEAR     41  35  80 W6        30.20F
ORD            CLEAR     37  34  89 NW5       30.20S WCI  33
BROKEN BOW     CLEAR     34  32  92 CALM      30.22S
VALENTINE NWR    N/A     36  34  91 CALM        N/A
BUTTE            N/A     41  35  77 W3          N/A
HALSEY           N/A     38  31  76 CALM        N/A
CHAMBERS         N/A     37  34  88 W3          N/A
EWING            N/A     42  37  84 NW3         N/A
$$

...OBSERVATIONS IN SOUTHWEST NEBRASKA AND FAR NORTHEAST COLORADO...

CITY           SKY/WX    TMP DP  RH WIND       PRES   REMARKS
HOLYOKE        FAIR      37  30  75 NW6       30.27S WCI  33
IMPERIAL       CLEAR     38  30  73 NW10      30.26R WCI  31
OGALLALA       CLEAR     35  31  84 W6        30.26S WCI  30
NORTH PLATTE   CLEAR     35  32  88 W7        30.24S WCI  29
MCCOOK         CLOUDY    39  34  82 N10       30.24R WCI  32
LEXINGTON      CLEAR     35  33  93 W7        30.24R WCI  29
PAXTON           N/A     39  34  82 W5          N/A
STAPLETON        N/A     36  32  86 CALM        N/A
GOTHENBURG       N/A     40  31  70 CALM        N/A
CALLAWAY         N/A     38  32  79 N3          N/A
$$

...OBSERVATIONS IN CENTRAL LINCOLN COUNTY AREA...

CITY           SKY/WX    TMP DP  RH WIND       PRES   REMARKS
N.P. AIRPORT   CLEAR     35  32  88 W7        30.24S WCI  29
N.P. DOWNTOWN    N/A     37  33  87 CALM        N/A
N.P. HILLCREST   N/A     37  33  85 N7          N/A  WCI  31
$$

...SOME OBSERVATIONS FROM AROUND THE REGION...

CITY           SKY/WX    TMP DP  RH WIND       PRES   REMARKS
DENVER         CLOUDY    33  27  78 SW7       30.29S WCI  27
LARAMIE        CLOUDY    23  18  81 CALM      30.27F
CHEYENNE       CLEAR     28  21  75 W12       30.27F WCI  18
SCOTTSBLUFF    CLEAR     35  30  82 NW8       30.27S WCI  29
RAPID CITY     CLEAR     34  29  82 W6        30.23F WCI  29
BISMARCK       CLEAR     45  32  60 SW3       30.15F
PIERRE         CLEAR     43  35  73 SW7       30.18F
SIOUX FALLS    CLEAR     39  35  86 CALM      30.17S
OMAHA          CLOUDY    50  45  83 CALM      30.16R
GRAND ISLAND   CLOUDY    46  42  86 NW6       30.21R
KANSAS CITY    CLOUDY    48  44  86 NW5       30.15R
WICHITA        CLOUDY    49  42  77 N10       30.18S
OKLAHOMA CITY  PTCLDY    51  44  77 N14       30.16F
DALLAS         PTCLDY    62  49  62 N20G28    30.06F
AMARILLO       CLOUDY    41  37  86 N9        30.26S
DODGE CITY     CLOUDY    41  39  93 NW6       30.24S
HAYS           CLOUDY    43  32  65 W7        30.23S
GOODLAND       CLEAR     32  28  85 NW7       30.26R WCI  26
$$




USA.gov is the U.S. government's official web portal to all federal, state and local government web resources and services.